Regional Weather Roundup
Issued by NWS

Home | Current Version | Previous Version | Text Only | Print | Product List | Glossary On
Versions: 1 2 3 4 5 6 7 8 9 10 11 12 13 14 15 16 17 18 19 20 21 22 23 24 25 26 27 28 29 30 31 32 33 34 35 36 37 38 39 40 41 42 43 44 45 46 47 48 49 50
037
ASUS42 KFFC 221810
RWRGA
WEATHER ROUNDUP FOR GEORGIA
NATIONAL WEATHER SERVICE PEACHTREE CITY GA
100 PM EST SUN JAN 22 2017

NOTE: "FAIR" INDICATES FEW OR NO CLOUDS BELOW 12,000 FEET WITH NO
SIGNIFICANT WEATHER AND/OR OBSTRUCTIONS TO VISIBILITY.

* = USE WITH CAUTION. THE STATIONS MARKED WITH AN ASTERISK MAY NOT
REPORT WEATHER SUCH AS PRECIPITATION, FOG, OR THUNDER AND ARE NOT
QUALITY CONTROLLED BY NWS.

THE REMARK "TC" DENOTES TEMPERATURE READING IN DEGREES CELSIUS.

GAZ001>058-221900-
NORTH GEORGIA

CITY           SKY/WX    TMP DP  RH WIND       PRES   REMARKS
ATLANTA        FOG       59  59 100 E10       29.43F VSB 1/4
6HR MIN TEMP:  56; 6HR MAX TEMP:  59;

ATHENS         CLOUDY    62  60  93 SE3       29.50F
6HR MIN TEMP:  56; 6HR MAX TEMP:  62;

CHAMBLEE       CLOUDY    59  56  89 VRB7      29.45F
6HR MIN TEMP:  56; 6HR MAX TEMP:  59;

PEACHTREE CITY CLOUDY    60  59  96 E7        29.43F FOG
6HR MIN TEMP:  56; 6HR MAX TEMP:  60;

ROME           CLOUDY    63  57  81 E7        29.38F
6HR MIN TEMP:  57; 6HR MAX TEMP:  63;

WEST ATLANTA   LGT RAIN  59  56  89 E10       29.44F
6HR MIN TEMP:  57; 6HR MAX TEMP:  60; 6HR PCP: TRACE;

GAINESVILLE    CLOUDY    57  56  96 E9        29.48F
6HR MIN TEMP:  54; 6HR MAX TEMP:  58;

CARTERSVILLE   CLOUDY    61  57  87 E9        29.41F
6HR MIN TEMP:  57; 6HR MAX TEMP:  62;



CITY           SKY/WX    TMP DP  RH WIND       PRES   REMARKS
DALTON*        CLOUDY    63  57  82 SE8       29.39F
MARIETTA       DRIZZLE   59  57  94 E14       29.43F FOG
KENNESAW*      CLOUDY    57  57 100 SE14G21   29.45F FOG
CANTON*        CLOUDY    59  54  82 E12G17    29.44F
$$

GAZ059>098-102>109-221900-
CENTRAL GEORGIA

CITY           SKY/WX    TMP DP  RH WIND       PRES   REMARKS
AUGUSTA-BUSH   CLOUDY    66  60  81 S12       29.51F
6HR MIN TEMP:  61; 6HR MAX TEMP:  66; 6HR PCP: TRACE;

AUGUSTA-DANIEL CLOUDY    64  58  80 S9        29.52F
6HR MIN TEMP:  60; 6HR MAX TEMP:  64; 6HR PCP: TRACE;

COLUMBUS       LGT RAIN  63  62  97 E13       29.35F
6HR MIN TEMP:  59; 6HR MAX TEMP:  64; 6HR PCP:  0.02;

MACON          LGT RAIN  62  60  93 SE9       29.43F FOG
6HR MIN TEMP:  60; 6HR MAX TEMP:  63; 6HR PCP:  0.09;

ROBINS AFB     LGT RAIN  63  61  94 E9        29.39F


CITY           SKY/WX    TMP DP  RH WIND       PRES   REMARKS
LAGRANGE*      CLOUDY    66  66 100 E6        29.36F
SYLVANIA*      CLOUDY   N/A N/A N/A S3        29.53F
MILLEDGEVILLE* CLOUDY    63  63 100 CALM      29.47F
$$

GAZ099>101-110>166-221900-
SOUTH GEORGIA

CITY           SKY/WX    TMP DP  RH WIND       PRES   REMARKS
SAVANNAH       HVY RAIN  62  59  90 S5        29.57F FOG
6HR MIN TEMP:  59; 6HR MAX TEMP:  62; 6HR PCP:  1.42;

VALDOSTA       CLOUDY    73  69  87 SW9       29.46F
6HR MIN TEMP:  61; 6HR MAX TEMP:  73; 6HR PCP:  2.81;

ALMA           RAIN      63  62  97 NW3       29.49F FOG
6HR MIN TEMP:  61; 6HR MAX TEMP:  64; 6HR PCP:  0.69;

ST SIMONS      RAIN      62  61  96 SE8       29.57F FOG
6HR MIN TEMP:  62; 6HR MAX TEMP:  68; 6HR PCP:  1.17;

FT STEWART     LGT RAIN  62  60  94 SE3       29.52F
ALBANY         CLOUDY    67  66  97 SE8       29.41F
HUNTER AFB     RAIN      62  62 100 SW6       29.55S
MOODY AFB      LGT RAIN  64  63  95 CALM      29.45F FOG
BRUNSWICK      TSTM      63  63 100 SE8       29.56F


CITY           SKY/WX    TMP DP  RH WIND       PRES   REMARKS
BAINBRIDGE*    MOSUNNY   72  66  83 E6        29.37F
MOULTRIE*      CLOUDY    66  64  94 SE3       29.45F
VIDALIA*       TSTM      63  63 100 S6        29.55R
WAYCROSS*      CLOUDY    65  65 100 N8        29.51F
DOUGLAS*       CLOUDY    63  61  94 SE5       29.49F
$$




USA.gov is the U.S. government's official web portal to all federal, state and local government web resources and services.